SWA715 KPWM-KBWI

Flight info

Callsign SWA715
Flight time 1h 16m
Altitude 30000
Route NUBLE4 CCC TOPRR Q167 ZIZZI KNUKK ATR LAFLN MIIDY3
Aircraft B738/M-SDE2E3FGHIRWXY/LB1

Departure

Time 2026-05-04 20:41
Airport Portland International Jetport (KPWM)

Arrival

Time 2026-05-04 21:58
Airport Baltimore/Washington International Thurgood Marshall Airport (KBWI)
Time Latitude Longitude Altitude Speed Heading
2026-05-04 20:21 43.64674 -70.31171 65 ft 0 kts 16°
2026-05-04 20:32 43.64673 -70.31171 65 ft 1 kts 15°
2026-05-04 20:33 43.64659 -70.31179 65 ft 2 kts 28°
2026-05-04 20:33 43.64646 -70.31190 65 ft 2 kts 37°
2026-05-04 20:33 43.64634 -70.31203 65 ft 2 kts 46°
2026-05-04 20:33 43.64625 -70.31219 66 ft 2 kts 56°
2026-05-04 20:34 43.64617 -70.31237 66 ft 2 kts 66°
2026-05-04 20:34 43.64612 -70.31257 66 ft 2 kts 75°
2026-05-04 20:34 43.64609 -70.31277 67 ft 2 kts 85°
2026-05-04 20:34 43.64609 -70.31297 67 ft 1 kts 94°
2026-05-04 20:35 43.64609 -70.31303 67 ft 0 kts 97°
2026-05-04 20:37 43.64606 -70.31263 66 ft 6 kts 96°
2026-05-04 20:37 43.64601 -70.31194 65 ft 8 kts 95°
2026-05-04 20:38 43.64593 -70.31080 63 ft 15 kts 95°
2026-05-04 20:38 43.64582 -70.30900 59 ft 21 kts 95°
2026-05-04 20:38 43.64567 -70.30673 52 ft 24 kts 96°
2026-05-04 20:38 43.64558 -70.30444 46 ft 21 kts 79°
2026-05-04 20:39 43.64585 -70.30227 39 ft 23 kts 94°
2026-05-04 20:39 43.64571 -70.29997 32 ft 20 kts 97°
2026-05-04 20:39 43.64558 -70.29944 30 ft 1 kts 122°
2026-05-04 20:39 43.64537 -70.29924 30 ft 4 kts 161°
2026-05-04 20:40 43.64494 -70.29916 30 ft 8 kts 176°
2026-05-04 20:40 43.64422 -70.29932 32 ft 10 kts 228°
2026-05-04 20:40 43.64413 -70.30020 35 ft 10 kts 272°
2026-05-04 20:40 43.64433 -70.30336 45 ft 66 kts 275°
2026-05-04 20:41 43.64496 -70.31291 67 ft 130 kts 275°
2026-05-04 20:41 43.64605 -70.32803 196 ft 172 kts 276°
2026-05-04 20:41 43.64726 -70.34334 1157 ft 162 kts 275°
2026-05-04 20:41 43.64876 -70.35930 1663 ft 174 kts 275°
2026-05-04 20:42 43.64963 -70.37612 2289 ft 179 kts 272°
2026-05-04 20:42 43.65022 -70.39380 2800 ft 194 kts 272°
2026-05-04 20:42 43.65048 -70.41376 3223 ft 213 kts 271°
2026-05-04 20:42 43.65065 -70.43475 3811 ft 225 kts 270°
2026-05-04 20:43 43.64763 -70.45629 4374 ft 235 kts 243°
2026-05-04 20:43 43.63693 -70.47227 5388 ft 229 kts 218°
2026-05-04 20:43 43.62296 -70.48290 6173 ft 232 kts 212°
2026-05-04 20:43 43.60873 -70.49367 6951 ft 234 kts 216°
2026-05-04 20:44 43.59452 -70.50607 7512 ft 247 kts 219°
2026-05-04 20:44 43.58024 -70.51944 8232 ft 252 kts 219°
2026-05-04 20:44 43.56559 -70.53297 8993 ft 256 kts 219°
2026-05-04 20:44 43.55058 -70.54668 9739 ft 260 kts 220°
2026-05-04 20:45 43.53544 -70.56077 10424 ft 266 kts 219°
2026-05-04 20:45 43.51872 -70.57384 10821 ft 287 kts 209°
2026-05-04 20:45 43.49907 -70.58327 11235 ft 307 kts 203°
2026-05-04 20:45 43.47783 -70.59134 11629 ft 323 kts 201°
2026-05-04 20:46 43.45546 -70.59967 11979 ft 340 kts 202°
2026-05-04 20:46 43.43199 -70.60877 12365 ft 355 kts 202°
2026-05-04 20:46 43.40756 -70.61848 12995 ft 362 kts 203°
2026-05-04 20:46 43.38314 -70.62836 13665 ft 368 kts 203°
2026-05-04 20:47 43.35830 -70.63846 14354 ft 372 kts 203°
2026-05-04 20:47 43.33327 -70.64861 15030 ft 377 kts 203°
2026-05-04 20:47 43.30783 -70.65895 15690 ft 381 kts 202°
2026-05-04 20:47 43.28228 -70.66936 16343 ft 386 kts 202°
2026-05-04 20:48 43.25612 -70.68004 17016 ft 390 kts 202°
2026-05-04 20:48 43.22990 -70.69070 17668 ft 394 kts 202°
2026-05-04 20:48 43.20329 -70.70152 18313 ft 397 kts 202°
2026-05-04 20:48 43.17685 -70.71299 18929 ft 399 kts 205°
2026-05-04 20:49 43.15110 -70.72697 19526 ft 400 kts 209°
2026-05-04 20:49 43.12573 -70.74348 20120 ft 402 kts 212°
2026-05-04 20:49 43.10053 -70.76132 20701 ft 406 kts 213°
2026-05-04 20:49 43.07534 -70.77978 21260 ft 409 kts 213°
2026-05-04 20:50 43.05025 -70.79827 21788 ft 414 kts 213°
2026-05-04 20:50 43.02469 -70.81703 22311 ft 418 kts 213°
2026-05-04 20:50 42.99852 -70.83611 22834 ft 422 kts 213°
2026-05-04 20:50 42.97241 -70.85502 23338 ft 426 kts 213°
2026-05-04 20:51 42.94585 -70.87415 23831 ft 431 kts 213°
2026-05-04 20:51 42.91908 -70.89334 24317 ft 435 kts 213°
2026-05-04 20:51 42.89208 -70.91264 24794 ft 439 kts 213°
2026-05-04 20:51 42.86447 -70.93231 25270 ft 442 kts 213°
2026-05-04 20:52 42.83690 -70.95156 25728 ft 447 kts 211°
2026-05-04 20:52 42.80806 -70.96901 26188 ft 452 kts 207°
2026-05-04 20:52 42.77879 -70.98441 26632 ft 457 kts 205°
2026-05-04 20:52 42.74817 -70.99927 27191 ft 457 kts 205°
2026-05-04 20:53 42.71810 -71.01335 27797 ft 455 kts 204°
2026-05-04 20:53 42.68809 -71.02728 28354 ft 453 kts 204°
2026-05-04 20:53 42.65804 -71.04127 28893 ft 452 kts 204°
2026-05-04 20:53 42.62793 -71.05542 29453 ft 451 kts 205°
2026-05-04 20:54 42.59818 -71.06950 29877 ft 452 kts 205°
2026-05-04 20:54 42.56831 -71.08377 29937 ft 453 kts 205°
2026-05-04 20:54 42.50912 -71.11211 29860 ft 443 kts 205°
2026-05-04 20:55 42.45083 -71.14076 29833 ft 444 kts 208°
2026-05-04 20:55 42.39616 -71.17857 29811 ft 436 kts 218°
2026-05-04 20:56 42.34605 -71.22491 29808 ft 435 kts 221°
2026-05-04 20:56 42.29702 -71.27407 29827 ft 435 kts 222°
2026-05-04 20:57 42.24857 -71.32295 29835 ft 436 kts 222°
2026-05-04 20:57 42.19949 -71.37202 29837 ft 437 kts 222°
2026-05-04 20:58 42.15023 -71.42086 29842 ft 438 kts 222°
2026-05-04 20:58 42.10064 -71.46976 29847 ft 439 kts 222°
2026-05-04 20:59 42.05068 -71.51885 29850 ft 440 kts 221°
2026-05-04 20:59 42.00079 -71.56775 29854 ft 441 kts 221°
2026-05-04 21:00 41.95119 -71.61624 29861 ft 442 kts 221°
2026-05-04 21:00 41.90086 -71.66537 29865 ft 443 kts 221°
2026-05-04 21:01 41.85065 -71.71426 29866 ft 443 kts 221°
2026-05-04 21:01 41.80084 -71.76268 29872 ft 443 kts 221°
2026-05-04 21:02 41.75064 -71.81140 29874 ft 443 kts 221°
2026-05-04 21:02 41.70012 -71.86032 29876 ft 444 kts 221°
2026-05-04 21:03 41.64964 -71.90911 29885 ft 444 kts 221°
2026-05-04 21:03 41.59942 -71.95755 29893 ft 444 kts 221°
2026-05-04 21:04 41.54972 -72.00692 29897 ft 440 kts 225°
2026-05-04 21:04 41.50429 -72.06226 29887 ft 438 kts 229°
2026-05-04 21:05 41.46062 -72.11984 29889 ft 443 kts 230°
2026-05-04 21:05 41.41630 -72.17834 29914 ft 448 kts 229°
2026-05-04 21:06 41.37191 -72.23612 29915 ft 443 kts 229°
2026-05-04 21:06 41.32721 -72.29371 29907 ft 443 kts 229°
2026-05-04 21:07 41.28245 -72.35107 29907 ft 444 kts 229°
2026-05-04 21:07 41.23781 -72.40808 29905 ft 444 kts 229°
2026-05-04 21:08 41.19410 -72.46380 29909 ft 443 kts 229°
2026-05-04 21:08 41.14937 -72.52065 29912 ft 443 kts 229°
2026-05-04 21:09 41.10466 -72.57739 29917 ft 442 kts 229°
2026-05-04 21:09 41.06023 -72.63367 29922 ft 442 kts 229°
2026-05-04 21:10 41.01533 -72.69041 29926 ft 443 kts 229°
2026-05-04 21:10 40.97045 -72.74696 29931 ft 442 kts 228°
2026-05-04 21:11 40.92345 -72.80034 29938 ft 448 kts 220°
2026-05-04 21:11 40.86955 -72.84347 29945 ft 453 kts 213°
2026-05-04 21:12 40.81313 -72.88202 29946 ft 453 kts 212°
2026-05-04 21:12 40.75636 -72.91992 29945 ft 453 kts 212°
2026-05-04 21:13 40.69978 -72.95837 29945 ft 460 kts 213°
2026-05-04 21:13 40.64263 -72.99741 29941 ft 455 kts 213°
2026-05-04 21:14 40.58612 -73.03566 29940 ft 456 kts 213°
2026-05-04 21:14 40.52954 -73.07425 29938 ft 452 kts 213°
2026-05-04 21:15 40.47332 -73.11271 29938 ft 453 kts 213°
2026-05-04 21:15 40.41727 -73.15100 29936 ft 453 kts 213°
2026-05-04 21:16 40.36193 -73.18874 29932 ft 452 kts 213°
2026-05-04 21:16 40.30727 -73.22592 29929 ft 452 kts 213°
2026-05-04 21:17 40.25217 -73.26337 29929 ft 451 kts 213°
2026-05-04 21:17 40.19587 -73.30152 29929 ft 451 kts 213°
2026-05-04 21:18 40.13982 -73.33942 29929 ft 451 kts 213°
2026-05-04 21:18 40.08451 -73.37676 29928 ft 451 kts 213°
2026-05-04 21:19 40.02819 -73.41471 29928 ft 451 kts 213°
2026-05-04 21:19 39.97528 -73.45031 29928 ft 451 kts 213°
2026-05-04 21:20 39.92097 -73.48677 29927 ft 451 kts 213°
2026-05-04 21:20 39.86590 -73.52463 29922 ft 456 kts 217°
2026-05-04 21:21 39.81453 -73.57089 29924 ft 439 kts 225°
2026-05-04 21:21 39.76743 -73.62204 29934 ft 439 kts 227°
2026-05-04 21:22 39.72189 -73.67363 29933 ft 438 kts 227°
2026-05-04 21:22 39.67553 -73.72595 29929 ft 438 kts 226°
2026-05-04 21:23 39.62914 -73.77780 29929 ft 439 kts 226°
2026-05-04 21:23 39.58380 -73.82811 29930 ft 439 kts 226°
2026-05-04 21:24 39.53716 -73.87962 29931 ft 439 kts 226°
2026-05-04 21:24 39.49010 -73.93140 29931 ft 439 kts 226°
2026-05-04 21:25 39.44335 -73.98270 29932 ft 438 kts 226°
2026-05-04 21:25 39.39676 -74.03374 29934 ft 438 kts 226°
2026-05-04 21:26 39.35006 -74.08484 29940 ft 438 kts 226°
2026-05-04 21:26 39.30318 -74.13602 29947 ft 438 kts 226°
2026-05-04 21:27 39.25625 -74.18716 29948 ft 438 kts 226°
2026-05-04 21:27 39.21028 -74.23715 29947 ft 438 kts 226°
2026-05-04 21:28 39.16357 -74.28786 29946 ft 438 kts 226°
2026-05-04 21:28 39.11661 -74.33875 29947 ft 438 kts 226°
2026-05-04 21:29 39.07026 -74.38886 29948 ft 437 kts 226°
2026-05-04 21:29 39.02367 -74.43916 29950 ft 437 kts 225°
2026-05-04 21:30 38.97709 -74.49058 29951 ft 434 kts 230°
2026-05-04 21:30 38.94154 -74.55177 29958 ft 422 kts 248°
2026-05-04 21:31 38.91393 -74.65826 29969 ft 416 kts 259°
2026-05-04 21:32 38.90007 -74.73119 29940 ft 416 kts 259°
2026-05-04 21:32 38.88663 -74.80346 29902 ft 416 kts 260°
2026-05-04 21:32 38.87991 -74.83994 29789 ft 411 kts 260°
2026-05-04 21:33 38.87331 -74.87565 29455 ft 406 kts 260°
2026-05-04 21:33 38.86674 -74.91099 28951 ft 406 kts 260°
2026-05-04 21:33 38.86012 -74.94645 28395 ft 404 kts 260°
2026-05-04 21:33 38.85358 -74.98134 27768 ft 403 kts 259°
2026-05-04 21:34 38.84697 -75.01629 27136 ft 402 kts 259°
2026-05-04 21:34 38.84028 -75.05152 26503 ft 401 kts 259°
2026-05-04 21:34 38.83366 -75.08624 25834 ft 399 kts 259°
2026-05-04 21:34 38.82712 -75.12043 25149 ft 396 kts 259°
2026-05-04 21:35 38.82055 -75.15466 24514 ft 391 kts 259°
2026-05-04 21:35 38.81411 -75.18851 23901 ft 386 kts 261°
2026-05-04 21:35 38.80907 -75.22220 23315 ft 379 kts 265°
2026-05-04 21:35 38.80592 -75.25561 22741 ft 374 kts 267°
2026-05-04 21:36 38.80373 -75.28896 22155 ft 370 kts 269°
2026-05-04 21:36 38.80194 -75.32175 21565 ft 367 kts 269°
2026-05-04 21:36 38.80024 -75.35416 20992 ft 364 kts 269°
2026-05-04 21:36 38.79847 -75.38663 20410 ft 361 kts 269°
2026-05-04 21:37 38.79664 -75.41859 19831 ft 358 kts 268°
2026-05-04 21:37 38.79475 -75.45036 19248 ft 356 kts 268°
2026-05-04 21:37 38.79284 -75.48196 18669 ft 358 kts 269°
2026-05-04 21:37 38.79120 -75.51441 18064 ft 366 kts 268°
2026-05-04 21:38 38.78917 -75.54687 17449 ft 362 kts 267°
2026-05-04 21:38 38.78699 -75.57897 16852 ft 359 kts 267°
2026-05-04 21:38 38.78482 -75.61105 16254 ft 355 kts 267°
2026-05-04 21:38 38.78270 -75.64236 15736 ft 349 kts 267°
2026-05-04 21:39 38.78061 -75.67339 15185 ft 345 kts 266°
2026-05-04 21:39 38.77860 -75.70378 14628 ft 342 kts 266°
2026-05-04 21:39 38.77657 -75.73425 14052 ft 339 kts 266°
2026-05-04 21:39 38.77461 -75.76413 13491 ft 336 kts 266°
2026-05-04 21:40 38.77269 -75.79384 12929 ft 333 kts 267°
2026-05-04 21:40 38.77073 -75.82365 12362 ft 331 kts 266°
2026-05-04 21:40 38.76876 -75.85290 11822 ft 328 kts 266°
2026-05-04 21:40 38.76684 -75.88158 11497 ft 318 kts 266°
2026-05-04 21:41 38.76495 -75.90950 11330 ft 304 kts 266°
2026-05-04 21:41 38.76312 -75.93597 11209 ft 290 kts 266°
2026-05-04 21:41 38.76139 -75.96163 11010 ft 280 kts 266°
2026-05-04 21:41 38.75977 -75.98599 10992 ft 267 kts 266°
2026-05-04 21:42 38.75820 -76.00981 10902 ft 270 kts 266°
2026-05-04 21:42 38.75659 -76.03391 10645 ft 269 kts 266°
2026-05-04 21:42 38.75584 -76.05765 10395 ft 265 kts 274°
2026-05-04 21:42 38.76023 -76.08051 10146 ft 266 kts 295°
2026-05-04 21:43 38.77007 -76.10072 9996 ft 260 kts 302°
2026-05-04 21:43 38.78046 -76.11945 9986 ft 255 kts 302°
2026-05-04 21:43 38.79053 -76.13853 9776 ft 259 kts 301°
2026-05-04 21:43 38.80045 -76.15801 9525 ft 257 kts 300°
2026-05-04 21:44 38.81008 -76.17735 9279 ft 255 kts 300°
2026-05-04 21:44 38.81959 -76.19651 9034 ft 256 kts 299°
2026-05-04 21:44 38.82923 -76.21592 8785 ft 256 kts 299°
2026-05-04 21:44 38.83896 -76.23536 8536 ft 256 kts 299°
2026-05-04 21:45 38.84856 -76.25472 8295 ft 257 kts 299°
2026-05-04 21:45 38.85817 -76.27409 8043 ft 258 kts 299°
2026-05-04 21:45 38.86773 -76.29389 7795 ft 257 kts 296°
2026-05-04 21:45 38.87534 -76.31451 7550 ft 254 kts 289°
2026-05-04 21:46 38.88150 -76.33562 7347 ft 248 kts 287°
2026-05-04 21:46 38.88718 -76.35632 7119 ft 242 kts 287°
2026-05-04 21:46 38.89292 -76.37659 6821 ft 240 kts 287°
2026-05-04 21:46 38.89873 -76.39674 6514 ft 238 kts 288°
2026-05-04 21:47 38.90464 -76.41675 6207 ft 237 kts 288°
2026-05-04 21:47 38.91041 -76.43646 5905 ft 235 kts 288°
2026-05-04 21:47 38.91624 -76.45622 5596 ft 233 kts 288°
2026-05-04 21:47 38.92198 -76.47549 5301 ft 232 kts 289°
2026-05-04 21:48 38.92983 -76.49382 5014 ft 235 kts 309°
2026-05-04 21:48 38.94377 -76.50591 5022 ft 256 kts 335°
2026-05-04 21:48 38.96099 -76.51283 5004 ft 251 kts 341°
2026-05-04 21:48 38.97752 -76.51856 4992 ft 234 kts 340°
2026-05-04 21:49 38.99279 -76.52430 4993 ft 219 kts 340°
2026-05-04 21:49 39.00783 -76.52734 4995 ft 222 kts 358°
2026-05-04 21:49 39.02356 -76.52473 4914 ft 227 kts
2026-05-04 21:49 39.03897 -76.52077 4718 ft 225 kts
2026-05-04 21:50 39.05443 -76.51651 4473 ft 224 kts 14°
2026-05-04 21:50 39.06831 -76.50764 4213 ft 224 kts 42°
2026-05-04 21:50 39.07666 -76.49097 3978 ft 217 kts 78°
2026-05-04 21:50 39.07858 -76.47187 3998 ft 213 kts 93°
2026-05-04 21:51 39.07786 -76.45276 4001 ft 211 kts 99°
2026-05-04 21:51 39.07704 -76.43405 3951 ft 208 kts 88°
2026-05-04 21:51 39.08161 -76.41674 3791 ft 202 kts 55°
2026-05-04 21:51 39.09096 -76.40360 3565 ft 197 kts 40°
2026-05-04 21:52 39.10220 -76.39327 3256 ft 196 kts 23°
2026-05-04 21:52 39.11527 -76.38900 2964 ft 190 kts 356°
2026-05-04 21:52 39.12842 -76.39090 2622 ft 191 kts 343°
2026-05-04 21:52 39.14111 -76.39674 2271 ft 190 kts 326°
2026-05-04 21:53 39.15067 -76.40774 2199 ft 183 kts 302°
2026-05-04 21:53 39.15682 -76.42209 2202 ft 182 kts 285°
2026-05-04 21:53 39.15962 -76.43786 2198 ft 179 kts 273°
2026-05-04 21:53 39.16082 -76.45397 2189 ft 172 kts 272°
2026-05-04 21:54 39.16179 -76.46850 2182 ft 156 kts 272°
2026-05-04 21:54 39.16264 -76.48254 2200 ft 156 kts 271°
2026-05-04 21:54 39.16351 -76.49657 2193 ft 156 kts 271°
2026-05-04 21:54 39.16430 -76.51080 2196 ft 156 kts 273°
2026-05-04 21:55 39.16518 -76.52467 2190 ft 151 kts 271°
2026-05-04 21:55 39.16591 -76.53837 1943 ft 156 kts 273°
2026-05-04 21:55 39.16682 -76.55217 1683 ft 150 kts 271°
2026-05-04 21:55 39.16756 -76.56582 1519 ft 154 kts 272°
2026-05-04 21:56 39.16837 -76.57984 1293 ft 157 kts 272°
2026-05-04 21:56 39.16920 -76.59355 1075 ft 150 kts 272°
2026-05-04 21:56 39.16996 -76.60719 876 ft 151 kts 273°
2026-05-04 21:56 39.17075 -76.62086 658 ft 153 kts 274°
2026-05-04 21:57 39.17152 -76.63458 449 ft 155 kts 276°
2026-05-04 21:57 39.17238 -76.64866 240 ft 156 kts 277°
2026-05-04 21:57 39.17319 -76.66227 143 ft 145 kts 275°
2026-05-04 21:57 39.17375 -76.67212 142 ft 72 kts 273°
2026-05-04 21:58 39.17424 -76.67653 137 ft 31 kts 317°
2026-05-04 21:58 39.17491 -76.67666 137 ft 6 kts 39°
2026-05-04 21:58 39.17507 -76.67602 137 ft 9 kts 90°
2026-05-04 21:58 39.17504 -76.67506 137 ft 12 kts 90°
2026-05-04 21:59 39.17534 -76.67397 139 ft 13 kts 54°
2026-05-04 21:59 39.17604 -76.67275 142 ft 18 kts 53°
2026-05-04 21:59 39.17688 -76.67242 142 ft 12 kts 333°
2026-05-04 21:59 39.17760 -76.67306 141 ft 12 kts 324°
2026-05-04 22:00 39.17829 -76.67371 140 ft 11 kts 324°
2026-05-04 22:00 39.17900 -76.67436 139 ft 15 kts 323°
2026-05-04 22:00 39.17985 -76.67481 138 ft 12 kts 29°
2026-05-04 22:00 39.18003 -76.67419 140 ft 4 kts 73°
2026-05-04 22:01 39.18005 -76.67410 141 ft 0 kts 69°
2026-05-04 22:01 39.18007 -76.67406 141 ft 2 kts 64°
2026-05-04 22:01 39.18023 -76.67374 143 ft 5 kts 53°
2026-05-04 22:01 39.18036 -76.67352 144 ft 0 kts 52°